GFSSGP_con_mlcape_132.txt.gz
CAPE
0 0 0 0 0 0 0 0 0 0 0 0 0 0 0 0 87 1091 1786 1286 671 1498 1881 857 348 546 1044 1255 1162 776 516 221 4 31 135 389 156 0 0 230 750 715 401 108 312 336 170 47 2
0 0 0 0 0 0 0 0 0 0 0 0 0 0 0 166 829 1844 1786 1047 1139 1752 1819 1044 276 500 910 1152 1044 772 675 454 253 322 300 267 21 0 47 239 678 722 374 80 9 28 28 0 0
0 0 0 0 0 0 0 0 0 0 0 0 0 0 0 224 1683 1906 1897 1092 1355 1817 1682 1273 229 306 731 831 739 685 695 596 504 520 311 152 0 0 274 445 594 616 314 111 131 109 68 2 0
0 0 0 0 0 0 0 0 0 0 0 0 0 0 0 23 387 1862 1498 1138 1686 1773 1540 1376 222 132 362 626 755 673 577 575 589 543 391 122 0 232 254 152 126 501 230 336 325 157 56 9 39
0 0 0 0 0 0 0 0 0 0 0 0 0 0 0 17 1770 1998 1322 1232 1496 1571 1482 1209 293 48 116 293 427 375 373 392 496 535 263 27 92 233 125 42 129 388 254 445 288 119 77 51 14
0 0 0 0 0 0 0 0 0 0 0 0 0 0 0 1227 1287 2134 1358 1196 1302 1324 1529 986 584 122 56 87 65 49 95 144 201 122 52 13 139 129 68 56 57 135 152 227 113 42 20 1 22
0 0 0 0 0 0 0 0 0 0 0 0 0 0 0 42 1410 2180 1414 1204 1189 1173 1368 983 366 383 211 209 51 7 1 14 21 6 0 2 54 57 60 53 10 24 36 64 34 3 12 25 83
0 0 0 0 0 0 0 0 0 0 0 0 0 0 0 749 1467 2019 1691 1422 1249 1208 1138 909 360 164 106 244 194 114 30 21 4 0 0 3 59 74 52 34 5 0 0 10 16 24 35 32 37
0 0 0 0 0 0 0 0 0 0 0 0 0 0 0 39 1158 1895 2136 1772 1363 1245 1061 953 651 211 39 73 289 269 151 48 29 18 5 5 0 23 93 14 33 18 1 1 9 14 17 52 45
0 0 0 0 0 0 0 0 0 0 0 0 0 0 0 33 780 1219 2149 1996 1622 1411 1233 1163 996 451 135 92 261 149 141 84 52 20 13 0 0 0 1 15 188 124 57 5 0 2 8 4 0
0 0 0 0 0 0 0 0 0 0 0 0 0 0 0 0 370 850 1357 2097 1930 1584 1482 1339 1481 1025 476 337 369 156 227 178 168 118 69 7 39 28 5 65 143 247 118 52 1 1 0 0 0
0 0 0 0 0 0 0 0 0 0 0 0 0 0 0 0 1 617 999 1823 2096 1680 1568 1473 1698 1518 980 659 706 424 450 404 399 462 440 222 233 160 49 15 14 29 36 21 32 12 1 1 0
0 0 0 0 0 0 0 0 0 0 0 0 0 0 0 0 0 813 1311 1603 2162 1810 1652 1762 1784 1783 1494 1017 1037 910 831 824 705 661 785 608 390 283 207 131 80 58 36 49 79 19 9 7 7
0 0 0 0 0 0 0 0 0 0 0 0 0 0 0 0 0 646 1849 1928 2249 2078 1940 1983 1978 2050 1908 1846 1647 1362 1203 1111 964 670 708 790 680 609 522 458 320 139 75 44 28 31 34 23 17
0 0 0 0 0 0 0 0 0 0 0 0 0 0 0 0 0 619 2050 2228 2496 2327 2258 2334 2197 2249 2070 2259 2343 1917 1655 1506 1234 921 978 1000 938 951 948 684 435 189 183 187 150 117 201 288 388
0 0 0 0 0 0 0 0 0 0 0 0 0 0 0 0 0 699 2269 2759 2838 2447 2426 2510 2280 2354 2157 2336 2298 1839 1794 1686 1406 1165 1159 1241 1213 1209 1150 740 556 337 381 342 230 286 345 565 654
0 0 0 0 0 0 0 0 0 0 0 0 0 0 0 0 0 347 2068 2464 3041 3025 2742 2613 2407 2154 2169 2237 2373 1900 1956 1894 1528 1374 1280 1403 1356 1324 1269 943 763 808 526 534 732 786 708 589 597
0 0 0 0 0 0 0 0 0 0 0 0 0 0 0 0 0 0 716 960 1910 2825 3248 3041 2540 2237 2235 2093 1964 1735 1822 1732 1713 1574 1562 1480 1696 1733 1714 1213 1133 1057 530 661 842 805 776 395 228
0 0 0 0 0 0 0 0 0 0 0 0 0 0 0 0 0 0 0 1 842 2346 2993 3428 3071 2571 1904 1715 1607 1746 1790 1607 1609 1538 1634 1629 1547 1682 1865 1469 1286 1105 762 1122 455 259 223 358 229
0 0 0 0 0 0 0 0 0 0 0 0 0 0 0 0 0 0 0 0 607 1461 2543 3145 3252 2151 1672 1625 1821 1674 1711 1405 1447 1341 1493 1600 1633 1603 1615 1430 1141 1203 867 443 302 185 216 346 504
0 0 0 0 0 0 0 0 0 0 0 0 0 0 0 0 0 0 0 0 45 762 1707 2571 2981 1972 1661 1765 1495 1439 1531 1520 1402 1289 1180 1358 1377 1438 1282 1142 1096 869 578 633 685 476 521 593 555
0 0 0 0 0 0 0 0 0 0 0 0 0 0 0 0 0 0 0 0 0 372 1090 1924 2591 1830 1380 1291 1425 1760 1530 1361 1294 1294 1117 1066 987 1072 1151 1138 1039 784 667 544 847 923 935 829 508
0 5 0 0 0 0 0 0 0 0 0 0 0 0 0 0 0 0 0 0 0 0 653 1843 2264 1258 944 1056 1537 1811 1718 1541 1497 1319 1492 1358 1202 1266 1108 1207 968 1021 1027 971 1059 1077 910 642 832
25 29 23 12 0 0 0 0 0 0 0 0 0 0 0 0 0 0 0 0 0 42 986 1998 1121 933 788 1223 1569 1623 1686 1498 1263 1247 1158 1279 1181 1193 1155 1066 1119 1036 883 867 947 849 851 951 802
34 13 4 17 5 0 0 0 0 0 0 0 0 0 0 0 0 0 0 0 2 1003 1413 1210 844 809 1138 1539 1179 1265 1431 1552 1670 1601 1386 1294 1208 1038 1219 1110 1124 1092 1003 799 779 734 583 391 188
33 13 11 1 0 0 0 0 0 0 0 0 0 0 0 0 0 0 0 0 877 818 678 617 788 865 849 704 745 930 1326 1118 841 832 1129 785 869 448 556 680 637 352 189 133 106 97 70 33 21
49 28 8 20 0 2 0 0 3 0 0 0 0 0 0 0 0 0 76 740 546 584 435 435 500 417 267 227 135 161 162 147 71 55 86 61 42 42 32 53 43 15 0 0 0 0 0 0 0
18 1 22 16 24 9 2 0 0 0 0 0 101 57 29 55 92 78 72 105 240 353 509 593 541 269 99 31 6 0 0 0 0 0 0 0 0 0 0 0 0 0 0 0 0 0 0 0 0
62 6 7 13 25 13 8 14 26 0 0 5 2 5 4 2 2 3 3 3 55 216 164 77 11 1 0 0 0 0 0 0 0 0 0 0 0 0 0 0 0 0 0 0 0 0 0 0 0
38 28 6 17 27 24 22 110 182 120 16 3 2 3 5 5 6 4 2 5 17 1 0 0 0 0 0 0 0 0 0 0 0 0 0 0 0 0 0 0 0 0 0 0 0 0 0 0 0

GFSSGP_con_mlcape_135.txt.gz
CAPE
0 0 0 0 0 0 0 0 0 0 0 0 0 0 0 0 496 1472 1580 1469 781 1292 1270 938 782 758 1072 1301 1150 736 437 185 18 9 84 298 56 76 454 715 677 334 404 863 655 392 219 80 4
0 0 0 0 0 0 0 0 0 0 0 0 0 0 0 16 1109 1560 1648 1087 1179 1634 1579 1124 832 869 1125 1310 1116 723 459 144 20 118 253 354 8 4 318 826 723 495 168 223 453 354 170 45 0
0 0 0 0 0 0 0 0 0 0 0 0 0 0 0 358 1563 1838 2278 1064 1527 1816 1566 1328 795 837 1083 1303 1147 741 418 201 142 266 313 270 12 2 242 607 743 532 299 83 68 140 44 0 0
0 0 0 0 0 0 0 0 26 1 0 0 0 0 0 0 264 2115 2148 1263 1739 1857 1436 1316 747 823 1134 1259 1031 773 570 340 244 352 329 163 15 0 198 581 680 501 243 168 182 101 8 0 0
0 0 0 0 0 0 0 0 0 0 0 0 0 0 0 120 226 1957 1387 1310 1708 1535 1407 1220 780 848 1061 1146 1014 828 763 508 417 401 234 62 0 63 285 272 284 438 220 326 271 68 0 3 47
0 0 0 0 0 0 0 0 0 0 0 0 0 0 0 470 274 2010 1279 1488 1575 1291 1605 1040 739 697 890 911 872 820 756 628 588 526 261 26 0 71 25 0 81 185 233 350 226 57 22 42 34
0 0 0 0 0 0 0 0 0 0 0 0 0 0 0 10 561 1899 1474 1492 1631 1377 1663 854 306 541 626 617 650 704 680 557 489 420 158 0 10 78 0 0 4 23 76 263 130 45 44 18 37
0 0 0 0 0 0 0 0 0 0 0 0 0 0 0 602 747 1476 1628 1540 1581 1457 1345 879 301 119 131 371 502 449 428 384 362 243 77 25 142 96 18 0 0 0 30 133 70 6 8 26 45
0 0 0 0 0 0 0 0 0 0 0 0 0 0 0 504 540 883 1917 1634 1537 1452 1272 772 450 119 1 0 262 185 214 243 222 163 103 61 0 68 137 0 5 0 36 51 24 14 23 12 15
0 0 0 0 0 0 0 0 0 0 0 0 0 0 0 0 384 627 1300 2014 1706 1555 1397 940 638 277 62 82 384 64 26 11 13 6 63 0 0 0 0 0 107 25 23 12 11 11 1 1 0
0 0 0 0 0 0 0 0 0 0 0 0 0 0 0 0 11 295 761 2084 1912 1696 1452 1215 1081 653 252 222 570 163 189 81 48 26 50 0 0 14 0 18 90 155 86 71 5 0 0 0 0
0 0 0 0 0 0 0 0 0 0 0 0 0 0 0 0 0 108 350 1599 2169 1985 1648 1444 1512 1008 737 430 660 279 408 314 278 262 196 48 72 119 41 0 73 29 45 58 19 6 0 0 0
0 0 0 0 0 0 0 0 0 0 0 0 0 0 0 0 0 0 201 579 2461 2336 2003 1822 2075 1547 1152 1207 853 583 642 626 685 710 769 326 540 410 318 80 30 13 4 23 12 14 24 8 6
0 0 0 0 0 0 0 0 0 0 0 0 0 0 0 0 0 0 157 637 1939 2670 2413 2200 2332 2482 1962 1556 1420 1252 1171 1016 991 940 997 1049 968 846 697 491 309 201 109 26 12 30 10 12 12
0 0 0 0 0 0 0 0 0 0 0 0 0 0 0 0 0 0 75 793 1546 2495 2672 2591 2550 2750 2614 2284 1979 1755 1447 1438 1260 1118 1165 1266 1272 1200 1082 870 636 387 241 217 224 151 77 100 69
0 0 0 0 0 0 0 0 0 0 0 0 0 0 0 0 0 0 0 1091 1272 2023 2829 2742 2666 2781 2863 2665 2555 2151 1841 1589 1538 1361 1209 1253 1450 1316 1542 994 721 541 458 330 340 264 166 98 145
0 0 0 0 0 0 0 0 0 0 0 0 0 0 0 0 0 0 0 1248 1720 2487 3157 3065 2980 2754 2869 2931 3105 2637 2280 2151 1712 1691 1302 1629 1344 1349 1409 1239 831 1030 733 651 578 599 623 825 917
0 0 0 0 0 0 0 0 0 0 0 0 0 0 0 0 0 0 163 1624 2968 3075 3154 3323 3184 3110 2623 2771 3006 2518 2495 2273 1980 2079 2084 2138 1765 1586 1444 1428 1452 1439 1208 831 674 842 1318 1285 763
0 0 0 0 0 0 0 0 0 0 0 0 0 0 0 0 0 0 303 1939 2912 3419 3486 2976 3113 3333 2708 2281 2643 2152 2034 2011 2047 2041 1753 1871 1876 1775 1755 1598 1468 1552 1356 970 959 1372 669 469 307
0 0 0 0 0 0 0 0 0 0 0 0 0 0 0 0 0 0 0 1687 1657 2523 2954 3342 3370 3192 2665 2350 2353 2274 2279 2212 1906 1842 1962 2008 1635 1697 1591 1767 1507 1379 1383 1069 846 565 349 408 187
0 0 0 0 0 0 0 0 0 0 0 0 0 0 0 0 0 0 0 0 342 1657 2611 3117 3652 3258 2301 2179 2522 2421 2362 1963 2003 1748 2040 1790 1616 1624 1668 1527 1495 1535 1357 777 486 662 869 504 659
0 0 0 4 4 0 0 0 0 0 0 0 0 0 0 0 0 0 0 0 142 760 1721 2474 3144 2658 2100 1981 2121 2121 1960 2077 1950 1812 1494 1620 1566 1517 1395 1490 1523 1542 1031 700 853 755 872 798 888
0 2 4 1 1 0 0 0 0 0 0 0 0 0 0 0 0 0 0 0 0 176 928 1924 2687 2523 2105 1871 1746 2178 2272 1815 1598 1383 1600 1835 1541 1458 1291 1271 1365 1239 993 804 718 1040 1139 1054 817
3 14 23 10 7 11 0 0 0 0 0 0 0 0 0 0 0 0 0 0 0 4 603 1825 2513 1801 1594 1580 1960 2499 2171 1637 1349 1368 1419 1392 1349 1325 1289 1226 1191 1315 1315 1204 1091 1145 1151 1309 1195
47 51 35 19 23 4 0 0 0 0 0 0 0 0 0 0 0 0 0 0 0 0 642 2463 1651 1342 1392 1680 1842 2217 1948 1765 1709 1566 1347 1274 1240 1118 1401 1242 1346 1262 1249 1309 1324 1466 1278 1211 1038
53 89 23 3 1 0 0 0 0 0 0 0 0 0 0 0 0 0 0 0 0 1207 1801 1583 1383 1263 1731 1736 1749 1854 1819 1802 1554 1459 1324 1207 1213 952 826 779 881 821 816 758 706 754 691 386 252
52 93 41 21 4 0 0 0 0 0 0 0 0 0 0 0 0 0 0 0 1335 1479 1199 1107 1167 1400 1129 1178 1199 1363 1346 972 822 760 541 369 283 164 159 140 164 134 128 116 133 113 79 88 79
42 53 34 13 16 14 4 0 2 3 0 0 0 75 82 5 0 10 382 1199 983 736 750 658 672 706 744 798 802 708 534 407 309 213 126 101 88 67 53 34 15 18 2 6 9 0 0 0 0
51 32 47 0 2 24 4 3 15 1 1 22 337 36 1 84 328 562 716 497 381 539 670 719 616 560 362 267 131 50 13 7 6 0 3 1 0 0 0 0 0 0 0 0 0 0 0 0 0
93 51 47 17 2 3 29 259 358 14 88 50 3 1 4 7 160 280 265 329 408 334 367 243 66 21 10 0 0 0 0 0 0 0 0 0 0 0 0 0 0 0 0 0 0 0 0 0 0

GFSSGP_con_mlcape_138.txt.gz
CAPE
0 0 0 0 0 0 0 0 0 0 0 0 0 0 0 394 202 282 21 324 581 1194 1303 870 741 1037 1216 1188 892 506 230 189 88 9 17 0 1 168 468 476 194 387 701 730 642 400 143 14 0
0 0 0 0 0 0 0 0 0 0 1 0 0 0 0 1023 1129 475 783 934 1001 1472 1275 1125 858 964 1110 1141 946 580 315 294 102 41 82 38 28 250 515 668 353 263 716 756 570 345 152 8 0
0 0 0 0 0 0 0 0 0 0 1 0 0 0 0 1394 1052 1376 1191 1416 1512 1587 1343 1447 946 951 1096 1024 957 666 393 186 38 47 72 39 18 201 651 763 585 361 140 247 347 194 13 0 0
0 0 0 0 0 0 0 0 0 0 0 0 0 0 0 17 1900 2415 1007 1854 1658 1697 1421 1442 1076 998 1061 1079 988 696 432 104 33 78 82 12 0 48 412 617 554 469 191 46 20 1 0 0 0
0 0 0 0 0 0 0 0 0 0 0 0 0 0 0 149 1400 2345 1238 2056 1894 1524 1956 1338 1080 1079 1187 1192 1065 733 392 135 155 190 152 97 11 0 89 301 406 300 113 107 39 0 0 0 0
0 0 0 0 0 0 0 0 0 0 0 0 0 0 36 190 1533 1806 1265 1789 1766 1395 1781 1138 1196 1149 1265 1336 1095 759 494 278 240 275 223 122 0 0 147 182 124 152 131 173 143 2 0 0 0
0 0 0 0 0 0 0 0 0 0 0 0 0 0 0 136 1273 1606 1321 1730 1511 1763 1712 944 1124 1336 1392 1336 978 766 656 508 442 438 297 72 0 55 22 0 0 14 171 261 117 10 0 0 0
0 0 0 0 0 0 0 0 0 0 0 0 0 0 0 354 909 1692 1430 1686 1503 1830 1365 709 805 998 986 1059 914 809 815 724 642 524 313 11 0 53 0 0 6 59 76 203 58 21 23 10 0
0 0 0 0 0 0 0 0 0 0 0 0 0 0 178 557 601 1848 1615 1769 1634 1683 1165 561 331 390 366 755 949 765 772 677 628 487 186 0 16 63 90 0 3 0 14 55 62 9 7 4 5
0 0 0 0 0 0 0 0 0 0 0 0 0 0 53 414 237 1101 1771 1779 1660 1653 1217 628 278 66 3 53 473 403 548 534 379 226 109 10 0 61 15 0 16 1 0 4 4 0 0 0 0
0 0 0 0 0 0 0 0 0 0 0 0 0 0 0 44 152 352 1201 1767 1581 1549 1298 649 311 46 0 24 103 73 122 70 60 39 150 31 0 78 0 78 33 48 0 0 0 0 0 0 0
0 0 0 0 0 0 0 0 0 0 0 0 0 0 0 0 0 17 510 1126 1639 1476 1402 839 604 290 110 529 71 185 222 118 49 64 184 0 41 108 12 52 88 169 118 1 49 0 0 0 0
0 0 0 0 0 0 0 0 0 0 0 0 0 0 0 0 0 1 121 457 1943 1631 1437 897 945 709 744 744 480 289 488 389 392 357 380 67 91 521 166 180 276 295 59 173 91 66 108 1 2
0 0 0 0 0 0 0 0 0 0 0 0 0 0 0 0 0 0 52 254 574 1752 1429 818 1180 1080 1141 1657 997 564 822 687 847 854 707 561 554 1004 661 654 466 154 387 143 393 285 180 177 65
0 0 0 0 0 0 0 0 0 0 0 0 0 0 0 0 0 0 0 40 481 1546 497 0 1754 1821 1541 2017 1501 827 1112 1101 1060 1229 1352 1122 940 1540 882 1189 697 701 414 414 251 240 170 154 132
0 0 0 0 0 0 0 0 0 0 0 0 0 0 0 0 0 0 0 0 212 1906 626 313 2556 2774 2144 2459 2406 1377 1641 1253 1347 1114 1681 1591 1504 1176 1710 1091 1017 1011 869 527 453 373 314 239 248
0 0 0 0 0 0 0 0 0 0 0 0 0 0 0 0 0 0 0 0 413 1645 2589 2490 2909 2913 2671 2336 2648 2098 1963 1681 1796 1303 1466 1618 1805 1600 1493 1644 1232 1312 977 847 769 877 848 606 687
0 0 0 0 0 0 0 0 0 0 0 0 0 0 0 0 0 0 0 0 885 1583 2983 2802 2765 2967 2875 2822 2883 2712 2459 2387 2205 1804 1817 2007 1994 1686 1391 1385 1497 1351 1293 1020 1071 724 721 668 717
0 0 0 0 0 0 0 0 0 0 0 0 0 0 0 0 0 0 0 0 1290 2194 3093 3116 2701 2602 2912 2666 2903 2779 2351 2458 2031 2308 2321 2456 2133 2014 2027 1593 1329 1240 1360 1477 1056 631 521 474 222
0 0 0 0 0 0 0 0 0 0 0 0 0 0 0 0 0 0 0 0 1876 3445 2962 2664 2659 2644 2862 2334 3022 2669 2253 2148 2162 1997 1972 2131 2076 1874 1740 1632 1644 1610 1676 1312 1039 591 373 259 219
3 0 0 0 0 0 0 0 0 0 0 0 0 0 0 0 0 0 0 0 3310 2609 1605 1284 1816 2619 2721 2405 2810 2396 2393 2423 1909 1948 2099 2096 1906 1625 1512 1432 1381 1361 1291 1105 743 368 33 7 37
0 0 0 0 0 1 2 0 1 0 0 0 0 0 0 0 0 0 0 171 2382 2566 971 0 82 1982 2371 2314 2553 2821 2471 2090 2094 2099 2063 1901 1763 1719 1450 1522 1202 1131 965 889 501 520 277 15 45
0 0 0 0 0 0 5 0 0 0 0 0 0 0 0 0 0 0 0 319 724 1770 2785 1992 1998 2300 2559 2261 2721 2415 2311 2101 2071 2016 1632 1588 1717 1282 1339 1114 1130 943 1269 1017 611 409 601 708 528
0 0 1 4 2 5 1 0 0 0 0 0 0 0 0 0 0 0 0 0 265 921 2049 2217 2866 2801 2536 2385 2120 2372 2277 1965 2079 1586 1419 1660 1335 1122 1295 1123 1125 1050 990 910 948 983 1030 1057 785
22 0 0 0 24 1 0 0 0 0 0 0 0 0 0 0 0 0 0 0 32 516 2047 2501 2535 2271 2012 1900 2232 2470 2329 1622 1532 1525 1320 1387 1267 1159 1336 1076 1114 1199 1234 995 1065 969 845 788 638
17 16 5 0 7 0 0 0 0 0 0 0 0 0 0 0 0 0 0 0 0 109 2077 2154 1896 1776 1621 1633 2109 2360 2067 1752 1710 1704 1578 1337 1198 1018 833 695 548 480 422 372 361 447 355 411 284
0 11 16 24 13 0 0 0 0 0 2 9 0 0 0 0 0 0 0 0 590 2352 2024 2096 1638 1409 1823 1491 1530 1680 1728 1568 1235 1065 902 624 397 353 249 249 233 121 68 63 77 88 57 125 106
29 40 72 53 17 11 1 0 0 0 0 0 63 2 0 0 0 0 415 1911 1924 1663 1671 1615 1419 1265 1177 1098 772 662 641 554 405 220 132 79 40 30 29 17 21 23 14 8 2 6 5 0 0
66 17 67 27 1 4 4 0 0 0 0 152 224 231 661 510 873 1096 1265 1283 1225 1153 1094 878 819 704 712 462 227 93 37 5 6 1 0 0 0 0 0 0 0 0 0 0 0 0 0 0 0
100 0 41 16 0 20 43 86 601 82 278 214 51 208 657 930 895 920 941 863 929 808 740 689 281 20 0 0 0 0 0 0 0 0 0 0 0 0 0 0 0 0 0 0 0 0 0 0 0

GFSSGP_con_mlcape_141.txt.gz
CAPE
0 0 0 0 0 0 0 0 0 0 0 0 0 0 490 125 4 0 0 27 1380 921 946 1299 1282 1230 1177 1037 579 278 142 16 0 0 0 0 19 49 18 40 135 395 472 380 218 60 0 0 0
0 0 0 0 0 0 0 0 0 0 0 0 0 0 908 601 87 0 13 1047 1066 955 769 1004 1244 1179 1107 916 514 223 108 9 0 0 0 0 3 156 93 126 337 565 509 440 210 72 6 0 0
0 0 0 0 0 0 0 0 0 0 0 0 0 0 978 467 63 16 505 1414 1226 888 819 969 1184 1058 977 811 526 212 155 0 0 0 0 0 1 167 316 184 131 381 588 396 171 82 1 0 0
0 0 0 0 0 0 0 0 0 0 0 0 0 0 306 714 387 1085 1333 1414 884 997 1086 1162 1132 977 913 808 623 335 272 57 5 9 0 0 0 219 493 366 333 127 34 44 70 7 0 0 0
0 0 0 0 0 0 0 0 0 0 0 0 0 1 611 2029 1492 1343 1337 1572 802 1417 1418 1038 1094 1011 882 855 697 455 239 32 16 21 0 0 0 185 471 376 336 229 95 10 0 0 0 0 0
0 0 0 0 0 0 0 0 0 0 0 0 0 11 494 2043 1361 1658 1631 1611 1136 1404 1566 978 1114 988 941 867 745 495 222 38 32 30 23 1 0 6 116 293 301 167 98 32 3 0 0 0 0
0 0 0 0 0 0 0 0 0 0 0 0 0 0 723 1967 1535 1836 1760 1603 1652 1619 1391 913 1026 1179 1037 985 798 511 223 113 105 92 71 5 0 0 41 139 128 77 162 127 10 0 0 0 0
0 0 0 0 0 0 0 0 0 0 0 0 0 0 318 1804 1468 1437 1654 1471 1597 1446 1166 663 822 1081 1141 1205 866 524 359 196 158 178 139 7 0 0 23 0 0 0 44 107 28 0 0 0 0
0 0 0 0 0 0 0 0 0 0 0 0 0 14 562 1652 1288 1495 1386 1580 1617 1369 1060 543 631 807 996 1127 996 721 599 432 373 339 184 0 0 0 0 0 0 0 0 24 16 0 0 0 0
0 0 0 0 0 0 0 0 0 0 0 0 0 548 997 1659 1359 1500 1461 1482 1605 1339 896 391 440 573 754 929 1026 770 811 658 494 356 186 0 0 0 0 0 0 0 0 0 0 4 0 0 0
0 0 0 0 0 0 0 0 0 0 0 0 0 11 524 848 1560 1452 1629 1291 1544 1228 683 223 221 348 446 625 531 565 574 412 327 216 34 0 0 41 0 20 10 0 0 0 0 0 0 0 0
0 0 0 0 0 0 0 0 0 0 0 0 0 0 140 249 236 1416 1500 1573 1380 1179 772 214 61 11 95 249 170 194 171 133 45 41 3 0 0 40 4 25 9 0 0 0 0 0 0 0 0
0 0 0 0 0 0 0 0 0 0 0 0 0 0 0 47 88 132 672 1535 1449 1270 669 285 38 12 151 147 27 43 42 57 2 77 95 0 0 34 47 11 41 20 47 8 0 0 0 0 0
0 0 0 0 0 0 0 0 0 0 0 0 0 0 0 0 0 0 22 50 1753 1166 449 233 201 248 520 278 114 171 189 109 91 50 168 39 0 35 119 76 309 384 171 94 71 70 162 184 51
0 0 0 0 0 0 0 0 0 0 0 0 0 0 0 0 0 0 0 12 1282 1007 495 372 261 268 906 718 268 481 444 342 453 331 334 235 58 252 901 370 398 166 277 313 262 174 115 42 1
0 0 0 0 0 0 0 0 0 0 0 0 0 0 0 0 0 0 0 0 943 759 513 235 9 12 126 1410 678 535 909 654 825 781 596 522 326 851 1470 1059 1023 827 838 578 255 254 192 216 241
0 0 0 0 0 0 0 0 0 0 0 0 0 0 0 0 0 0 0 0 291 211 6 0 0 0 174 1139 1480 742 1730 1014 1179 1596 1228 1025 926 976 1270 1093 1015 1127 1136 593 420 425 494 507 514
0 0 0 0 0 0 0 0 0 0 0 0 0 0 0 0 0 0 0 0 128 108 12 1 0 0 31 1275 2116 1595 2001 1707 1797 1670 1747 1775 1710 1411 1271 1113 1168 1147 984 876 878 553 552 451 329
0 0 0 0 0 0 0 0 0 0 0 0 0 0 0 0 0 0 0 0 253 316 0 0 0 0 2 364 1489 1644 1699 2084 2011 1992 2125 2159 1885 1619 1345 1194 1111 1082 961 1098 759 548 450 305 185
2 0 0 0 0 0 0 0 0 0 0 0 0 0 0 0 0 0 0 0 1321 2154 1386 248 337 492 1050 1711 1685 1782 1912 2141 1929 2168 2056 1993 1900 1841 1723 1395 1270 1313 1336 1209 950 527 317 198 118
11 5 0 0 0 0 0 0 0 0 0 0 0 0 0 0 0 0 0 0 1231 2779 2392 2106 2365 1845 2091 2008 2056 2176 1979 2144 1890 1679 1874 2084 1878 1643 1486 1541 1416 1159 1092 1022 763 438 200 20 64
0 0 0 0 0 0 0 0 0 0 0 0 0 0 0 0 0 0 0 0 1939 2119 1741 1667 2263 2188 2232 2292 2051 2195 2035 1927 1782 1741 1788 1851 1679 1508 1381 1279 1219 995 828 710 533 400 323 100 0
0 0 0 0 0 0 0 0 0 0 0 0 0 0 0 0 0 0 0 3 1768 2137 1697 1135 1270 1611 1964 2123 2067 2044 2096 1897 1806 1979 1820 1804 1491 1178 1172 1097 946 823 803 932 670 166 84 304 410
12 0 0 0 0 0 0 0 0 1 0 0 0 0 0 0 0 0 0 628 2192 1669 670 0 303 1840 1873 2002 2192 1826 2172 1703 1576 1874 1770 1446 1121 942 970 997 850 862 701 703 757 880 801 693 629
36 10 0 0 0 0 0 0 0 0 0 0 0 0 0 0 0 0 0 720 2253 1766 1072 902 1239 1984 1995 2012 1907 2178 1659 1335 1749 1867 1448 1250 988 919 876 834 792 759 658 462 603 513 354 494 317
21 5 0 0 0 0 0 0 0 0 0 0 0 0 0 0 0 0 0 458 2141 2340 2331 2237 2360 2087 1951 1746 1988 1536 1124 1307 1498 1380 1288 1045 814 670 384 165 72 23 2 19 23 57 35 36 53
35 19 5 9 7 0 0 0 0 0 1 1 0 0 0 0 0 0 0 106 2143 2209 2099 2199 2289 1878 1533 1500 1334 1175 977 829 693 538 416 386 286 131 0 0 0 0 0 0 0 0 0 0 0
0 0 0 0 1 6 0 0 0 0 48 24 0 0 0 0 0 0 39 1237 2005 1886 1949 1959 1601 1183 971 736 490 352 199 44 0 0 0 0 0 0 0 0 0 0 0 0 0 0 0 0 0
15 0 0 0 25 1 0 0 0 0 114 155 177 0 0 27 572 1062 1587 1633 1579 1474 1443 1315 896 597 344 83 0 0 0 0 0 0 0 0 0 0 0 0 0 0 0 0 0 0 0 0 0
5 53 7 5 1 12 1 0 120 483 359 398 693 625 914 1075 1201 1113 1132 1064 1006 984 649 358 26 0 0 0 0 0 0 0 0 0 0 0 0 0 0 0 0 0 0 0 0 0 0 0 0

GFSSGP_con_mlcape_144.txt.gz
CAPE
0 0 0 0 0 0 0 0 0 0 0 0 1 63 36 57 117 56 33 14 519 686 1231 1654 1611 1425 1112 679 271 28 0 0 0 0 0 0 0 0 0 32 116 187 284 67 1 0 0 0 0
0 0 0 0 0 0 0 0 0 0 0 0 0 92 126 141 52 28 15 71 739 703 1141 1458 1598 1403 1058 554 225 17 0 0 0 0 0 0 0 0 0 26 120 182 223 158 38 0 0 0 0
0 0 0 0 0 0 0 0 0 0 0 0 0 735 650 423 126 48 215 608 922 829 1183 1365 1481 1342 1087 562 220 62 2 0 0 0 0 0 0 0 0 50 114 154 210 199 79 0 0 0 0
0 0 0 0 0 0 0 0 0 0 0 0 0 636 594 199 120 232 1136 1187 822 796 1078 1561 1415 1315 1041 601 304 173 115 53 0 0 0 0 117 21 36 59 246 420 403 219 78 1 0 0 0
0 0 0 0 0 0 0 0 0 0 0 0 0 124 364 139 256 914 1243 1107 553 843 1316 1485 1428 1258 1057 779 460 289 110 34 1 0 0 0 182 364 195 175 116 126 166 199 56 0 0 0 0
0 0 0 0 0 0 0 0 0 0 0 0 0 1373 1059 810 548 1255 1314 856 853 761 1216 1209 1393 1257 1047 948 620 410 167 62 41 8 0 0 122 438 325 340 336 203 89 24 0 0 0 0 0
0 0 0 0 0 0 0 0 0 0 0 0 0 0 1512 1502 1135 1416 1163 945 1039 1004 997 1130 1213 1284 1109 990 765 527 240 97 85 26 9 0 1 171 265 309 261 146 103 11 0 0 0 0 0
0 0 0 0 0 0 0 0 0 0 0 0 0 0 705 1766 1471 1498 1238 1251 1266 1212 953 1022 1218 1419 1308 1228 946 603 242 101 102 74 46 0 0 29 136 239 170 101 161 108 0 0 0 0 0
0 0 0 0 0 0 0 0 0 0 0 0 0 0 795 1651 1551 1501 1668 1438 1156 1210 938 941 988 1060 1104 1218 1064 672 318 179 178 202 133 16 0 14 204 41 9 0 64 54 0 0 0 0 0
0 0 0 0 0 0 0 0 0 0 0 0 0 0 1145 1790 1645 1657 1769 1624 970 978 859 703 776 725 1233 1296 1100 692 542 422 384 359 262 45 0 20 48 0 0 0 0 0 0 0 0 0 0
0 0 0 0 0 0 0 0 0 0 0 0 0 357 1469 1771 1747 1666 1768 1725 1452 1123 875 747 636 887 1134 1178 976 807 789 571 495 385 217 10 0 5 0 0 1 0 0 0 0 0 0 0 0
0 0 0 0 0 0 0 0 0 0 0 0 0 1549 1547 1523 1626 1637 1774 1782 1513 1283 974 596 507 590 843 873 704 602 446 340 276 279 164 0 0 14 0 38 27 20 8 0 0 0 0 0 0
0 0 0 0 0 0 0 0 0 0 0 0 0 7 1566 1369 1576 1606 1716 1792 1562 1244 828 507 271 161 502 461 307 355 240 167 136 90 29 0 0 44 84 41 45 27 0 0 0 0 0 0 0
0 0 0 0 0 0 0 0 0 0 0 0 0 0 206 1189 1096 1414 1465 1823 1500 948 663 330 135 206 216 180 135 133 85 48 17 22 40 0 2 36 109 40 7 97 105 103 90 38 53 107 89
0 0 0 0 0 0 0 0 0 0 0 0 0 0 0 44 267 1079 455 1638 1204 861 433 203 188 218 208 103 73 23 13 26 15 32 141 116 0 44 241 154 144 303 293 241 239 205 201 234 120
0 0 0 0 0 0 0 0 0 0 0 0 0 0 0 0 0 27 476 1099 1031 697 468 132 317 348 395 456 155 123 109 191 166 140 204 256 72 59 372 609 460 570 526 470 424 267 223 98 189
0 0 0 0 0 0 0 0 0 0 0 0 0 0 0 0 0 0 664 947 989 721 432 200 175 125 49 124 762 230 397 381 383 422 432 424 333 220 1030 1287 898 867 738 745 489 333 401 474 445
0 0 0 0 0 0 0 0 0 0 0 0 0 0 0 0 0 0 277 1126 856 660 494 325 71 0 0 330 1064 904 631 475 569 728 675 601 612 549 1406 1177 1151 1002 825 778 743 642 520 444 377
0 0 0 0 0 0 0 0 0 0 0 0 0 0 0 0 0 0 69 526 724 579 410 316 105 0 0 67 588 1506 626 1328 1129 1299 1268 1248 1074 1152 1211 1210 1085 963 878 890 733 573 506 322 125
0 0 0 0 0 0 0 0 0 0 0 0 0 0 0 0 0 0 0 21 307 382 244 119 28 0 0 86 864 1437 1191 1331 1184 1657 1796 1756 1598 1658 1508 1259 1032 1115 1115 1045 884 709 403 163 22
0 0 0 0 0 0 0 0 0 0 0 0 0 0 0 0 0 0 0 0 36 149 149 42 0 0 24 119 94 901 734 962 626 1005 996 1714 1862 1723 1565 1383 1267 1152 1041 954 849 550 288 147 26
0 0 0 0 0 0 0 0 0 0 0 0 0 0 0 0 0 0 0 0 102 63 140 129 19 60 23 0 5 9 156 626 600 808 1025 1049 1607 1665 1517 1469 1217 1125 795 612 588 402 231 151 59
0 0 0 0 0 0 0 0 0 0 0 0 0 0 0 0 0 0 0 0 750 823 420 105 215 141 22 11 109 380 918 755 664 626 1067 1157 1211 1308 1384 1236 959 779 703 739 696 359 30 90 307
0 0 0 0 0 0 0 0 0 0 0 0 0 0 0 0 0 0 0 19 632 2142 2031 1821 1604 1776 1537 1258 729 626 941 821 965 849 925 911 960 1069 934 798 664 661 610 562 552 540 400 370 331
18 4 0 0 0 0 0 0 0 0 0 0 0 0 0 0 0 0 0 175 1181 1691 1567 1999 2046 1877 1591 1295 1193 1008 864 721 833 973 840 787 1004 718 645 533 450 373 78 111 119 11 0 2 3
21 0 0 0 0 0 0 0 0 0 0 0 0 0 0 0 0 0 1 387 1297 1204 1124 1513 1300 1474 1192 1289 921 506 496 190 601 1223 848 610 505 198 33 5 0 0 0 0 0 0 0 0 0
47 2 2 2 2 0 0 0 0 0 0 0 0 0 0 0 0 0 85 932 1610 1332 969 1075 1010 1398 1307 947 577 216 100 146 417 586 392 143 6 0 0 0 0 0 0 0 0 0 0 0 0
51 46 14 0 15 4 0 0 0 0 0 0 0 0 0 0 0 0 1050 1838 2120 1828 1743 1650 1342 1041 789 538 215 22 0 0 0 0 0 0 0 0 0 0 0 0 0 0 0 0 0 0 0
97 32 16 0 1 17 0 0 0 0 90 25 0 0 0 0 54 1194 1983 2125 1790 1513 1190 1115 738 460 144 19 0 0 0 0 0 0 0 0 0 0 0 0 0 0 0 0 0 0 0 0 0
66 0 4 3 0 0 0 0 165 65 331 201 0 0 194 218 1147 1638 1658 1532 1094 908 343 219 40 1 0 0 0 0 0 0 0 0 0 0 0 0 0 0 0 0 0 0 0 0 0 0 0

GFSSGP_con_mlcape_147.txt.gz
CAPE
0 0 0 0 0 0 0 0 0 0 0 0 0 19 6 10 7 1 11 191 157 425 885 1085 1349 1338 813 196 3 0 0 0 0 0 0 0 0 20 55 127 232 190 125 131 36 0 0 0 0
0 0 0 0 0 0 0 0 0 0 0 0 0 0 0 3 53 27 7 448 573 1008 975 1074 1426 1376 873 267 1 0 0 0 0 0 0 0 0 0 19 86 162 222 96 43 16 0 0 0 0
0 0 0 0 0 0 0 0 0 0 0 0 0 302 202 152 96 37 100 554 901 1065 1197 1285 1575 1379 912 281 5 0 0 0 0 0 0 0 0 0 42 94 147 224 247 155 83 0 0 0 0
0 0 0 0 0 0 0 0 0 0 0 0 0 0 309 464 124 30 446 690 756 984 1205 1422 1637 1398 915 356 88 5 0 0 0 0 0 0 0 0 30 121 213 345 396 263 119 1 0 0 0
0 0 0 0 0 0 0 0 0 0 0 0 0 0 0 153 361 523 570 790 947 1123 1391 1577 1542 1435 969 513 222 84 0 0 0 0 0 1 0 7 72 263 393 457 459 281 82 0 0 0 0
0 0 0 0 0 0 0 0 0 0 0 0 0 0 143 645 660 1039 773 693 1059 1003 1671 1737 1721 1405 1045 672 336 181 28 1 0 0 0 13 22 100 156 131 127 157 155 77 2 0 0 0 0
0 0 0 0 0 0 0 0 0 0 0 0 0 0 3 610 1142 1305 1095 848 968 1352 1473 1613 1614 1431 1120 780 454 292 98 25 5 0 0 42 386 418 318 329 311 230 134 18 0 0 0 0 0
0 0 0 0 0 0 0 0 0 0 0 0 0 0 0 104 1346 1173 984 1059 1146 1429 1418 1430 1487 1347 1172 993 686 433 174 98 36 13 0 21 289 451 342 304 252 144 109 0 0 0 0 0 0
0 0 0 0 0 0 0 0 0 0 0 0 0 0 0 801 1408 1132 1341 1258 1099 1257 1242 1299 1291 1106 1037 1049 910 641 277 152 146 120 93 29 33 182 247 172 87 14 32 0 0 0 0 0 0
0 0 0 0 0 0 0 0 0 0 0 0 0 0 0 968 1429 1361 1247 1116 876 972 1005 1025 962 750 906 1081 1064 715 471 304 222 204 148 0 0 1 89 14 0 0 0 0 0 0 0 0 0
0 0 0 0 0 0 0 0 0 0 0 0 0 0 34 1071 1200 1477 1284 1087 835 852 944 980 847 689 770 1029 973 620 535 338 277 233 145 1 0 0 48 0 1 7 19 0 1 0 0 0 0
0 0 0 0 0 0 0 0 0 0 0 0 0 0 757 1234 1303 1581 1426 1193 1048 919 916 858 679 560 998 950 760 505 336 209 190 233 150 0 0 0 0 0 0 9 13 1 0 0 0 0 0
0 0 0 0 0 0 0 0 0 0 0 0 0 0 489 1670 1685 1749 1762 1476 1126 973 941 770 597 722 916 604 593 478 271 185 147 166 132 0 0 0 0 0 7 15 34 16 0 0 0 0 0
0 0 0 0 0 0 0 0 0 0 0 0 0 0 0 1905 1789 1872 1843 1672 1237 965 909 880 626 532 570 310 295 238 192 117 95 30 19 0 0 0 21 21 19 59 80 73 70 76 36 21 45
0 0 0 0 0 0 0 0 0 0 0 0 0 0 0 1391 1711 1703 1956 1726 1506 1264 1081 724 356 426 435 227 156 91 32 44 2 0 0 0 0 0 18 44 61 41 101 170 165 153 143 125 110
0 0 0 0 0 0 0 0 0 0 0 0 0 0 0 533 1297 1410 1635 1618 1267 1135 1221 719 425 346 238 60 9 4 3 0 0 0 0 5 1 0 16 92 152 104 196 325 357 320 313 271 197
0 0 0 0 0 0 0 0 0 0 0 0 0 0 0 0 71 906 867 1520 1225 1083 1281 859 380 219 91 5 7 0 0 0 0 0 0 17 45 1 1 102 412 454 748 672 564 408 347 306 338
0 0 0 0 0 0 0 0 0 0 0 0 0 0 0 0 0 402 989 1172 993 1024 1076 553 248 187 194 222 195 77 58 0 13 50 69 77 142 159 82 211 1035 817 772 764 650 638 493 424 364
0 0 0 0 0 0 0 0 0 0 0 0 0 0 0 0 31 498 1016 1234 1032 878 700 427 179 74 172 461 568 260 301 201 177 241 260 278 184 306 242 730 994 990 873 841 771 624 558 385 147
0 0 0 0 0 0 0 0 0 0 0 0 0 0 0 0 0 755 1232 1165 1239 1199 712 385 155 62 158 134 642 1046 647 604 449 599 580 515 484 450 489 696 919 1045 1020 996 796 618 421 183 14
0 3 0 0 0 0 0 0 0 0 0 0 0 0 0 0 0 69 816 1117 1146 1061 841 590 404 76 73 92 573 853 1071 895 859 1092 1204 1211 1020 824 727 858 763 1165 987 807 714 490 287 143 24
0 0 3 0 0 0 0 0 0 0 0 0 0 0 0 0 0 0 384 867 997 967 811 682 458 282 169 73 255 404 612 811 715 679 700 676 485 160 200 636 949 1016 653 414 353 212 86 7 11
0 1 1 0 0 0 0 0 0 0 0 0 0 0 0 0 0 0 0 379 529 617 581 556 524 482 158 87 79 241 585 685 481 266 152 613 50 4 516 708 765 577 432 451 355 251 188 79 153
17 3 25 0 0 1 0 0 0 0 0 0 0 0 0 0 0 0 0 0 206 415 416 423 499 491 143 112 149 49 132 319 269 270 279 115 15 226 438 479 413 265 236 119 0 0 0 0 0
22 1 4 6 1 0 0 0 0 0 0 0 0 0 0 0 0 0 0 49 102 164 296 336 455 416 331 194 75 140 7 44 171 20 64 13 13 311 341 291 41 0 0 0 0 0 0 0 0
0 0 0 2 3 0 0 0 0 0 0 0 0 0 0 0 0 0 0 441 678 499 419 670 777 812 674 789 1048 801 117 69 115 1 5 42 48 8 1 0 0 0 0 0 0 0 0 0 0
6 0 2 21 38 0 0 0 0 0 0 0 0 0 0 0 0 0 0 316 896 903 1459 1442 1206 1137 893 597 360 262 300 111 0 1 2 0 0 0 0 0 0 0 0 0 0 0 0 0 0
9 4 1 32 8 11 7 0 0 0 0 0 0 0 0 0 0 0 41 316 629 1336 1568 1304 1013 474 89 45 7 0 3 1 0 0 0 0 0 0 0 0 0 0 0 0 0 0 0 0 0
0 7 5 35 18 11 0 0 0 0 0 0 0 0 0 0 0 147 517 1098 1444 1201 878 358 126 23 2 0 0 0 0 0 0 0 0 0 0 0 0 0 0 0 0 0 0 0 0 0 0
3 1 0 0 0 2 0 0 0 0 0 34 75 0 0 0 281 934 1560 1370 851 428 159 30 0 0 0 0 0 0 0 0 0 0 0 0 0 0 0 0 0 0 0 0 0 0 0 0 0

GFSSGP_con_mlcape_150.txt.gz
CAPE
0 0 0 0 0 0 0 0 0 0 0 0 0 0 5 0 0 0 12 510 140 805 963 1187 1286 767 209 7 0 0 0 0 0 0 0 0 0 0 0 32 121 247 376 127 1 0 0 0 0
0 0 0 0 0 0 0 0 0 0 0 0 0 0 2 2 0 0 111 757 644 970 1345 1294 1349 819 241 0 0 0 0 0 0 0 0 0 0 0 4 129 165 148 155 83 3 0 0 0 0
0 0 0 0 0 0 0 0 0 0 0 0 0 42 30 0 0 0 99 782 1013 1070 1206 1474 1360 895 301 8 0 0 0 0 0 0 0 0 0 0 24 172 209 136 112 77 39 27 0 0 0
0 0 0 0 0 0 0 0 0 0 0 0 0 0 0 540 293 29 649 917 917 1102 1202 1632 1452 1013 374 30 0 0 0 0 0 0 0 0 0 0 52 142 291 405 352 240 99 5 0 0 0
0 0 0 0 0 0 0 0 0 0 0 0 0 0 0 98 401 485 943 1142 995 1354 1527 1712 1583 1142 488 109 17 0 0 0 0 0 0 0 0 11 100 155 256 353 349 230 82 3 0 0 0
0 0 0 0 0 0 0 0 0 0 0 0 0 0 0 1059 860 750 982 1115 1277 1215 1666 1700 1664 1220 652 228 39 1 0 0 0 0 0 0 0 6 100 225 347 438 316 177 50 0 0 0 0
0 0 0 0 0 0 0 0 0 0 0 0 0 0 0 32 941 914 897 1204 1354 1552 1660 1663 1583 1309 740 388 82 5 0 0 0 0 0 0 0 0 17 21 32 31 4 0 0 0 0 0 0
0 0 0 0 0 0 0 0 0 0 0 0 0 0 0 65 973 827 923 1143 1442 1637 1646 1721 1546 1253 862 541 213 30 0 0 0 0 0 16 37 84 72 47 39 14 0 0 0 0 0 0 0
0 0 0 0 0 0 0 0 0 0 0 0 0 0 0 15 986 972 942 1235 1386 1505 1600 1567 1430 1211 794 594 406 151 32 9 2 1 0 41 120 156 76 8 0 0 0 0 0 0 0 0 0
0 0 0 0 0 0 0 0 0 0 0 0 0 0 0 0 746 835 902 937 1207 1242 1281 1405 1330 1097 829 704 665 318 213 92 25 2 0 0 0 3 0 0 0 0 0 0 0 0 0 0 0
0 0 0 0 0 0 0 0 0 0 0 0 0 0 0 0 730 1002 961 900 1064 1130 1163 1303 1077 1085 907 765 554 368 293 111 102 44 0 0 0 0 0 0 0 0 0 0 2 2 0 0 0
0 0 0 0 0 0 0 0 0 0 0 0 0 0 0 0 710 1254 1218 1119 1071 1093 1164 1192 1082 867 858 731 594 463 159 98 104 91 16 0 0 0 0 0 0 0 0 0 0 0 0 0 0
0 0 0 0 0 0 0 0 0 0 0 0 0 0 0 0 1081 1425 1395 1143 1035 935 984 931 872 751 763 603 554 385 153 74 63 77 46 0 0 0 0 0 0 0 0 2 3 0 0 0 0
0 0 0 0 0 0 0 0 0 0 0 0 0 0 0 0 565 1511 1305 1144 1022 973 918 966 763 786 761 506 467 319 199 60 45 49 12 0 0 0 0 0 0 0 16 44 54 73 62 31 0
0 0 0 0 0 0 0 0 0 0 0 0 0 0 0 0 122 1580 1435 1268 1093 980 957 895 767 756 771 532 381 300 106 51 5 0 5 0 0 0 0 0 0 21 92 147 170 164 126 159 195
0 0 0 0 0 0 0 0 0 0 0 0 0 0 0 0 30 1696 1653 1356 1166 1083 1036 974 867 846 769 383 222 161 87 64 22 10 8 0 0 0 0 32 69 108 150 148 202 311 372 377 354
0 0 0 0 0 0 0 0 0 0 0 0 0 0 0 0 15 1475 1801 1614 1308 1132 1047 979 791 675 449 323 224 88 49 22 1 0 0 0 0 0 0 43 119 209 320 499 529 566 453 430 349
0 0 0 0 0 0 0 0 0 0 0 0 0 0 0 0 0 1029 1723 1770 1427 1160 902 735 633 572 536 232 104 45 11 0 0 0 0 0 12 17 0 31 143 302 638 710 602 651 623 610 525
0 0 0 0 0 0 0 0 0 0 0 0 0 0 0 0 0 563 1177 1275 1241 1175 1084 977 755 545 387 238 49 17 0 0 0 0 0 12 42 80 92 52 154 542 635 716 798 687 641 563 216
0 0 0 0 0 0 0 0 0 0 0 0 0 0 0 0 0 39 732 949 1374 1433 1479 1178 954 488 344 341 228 138 136 110 11 27 106 81 104 142 227 302 418 417 314 538 572 657 560 285 37
0 1 0 0 0 0 0 0 0 0 0 0 0 0 0 0 0 17 399 1034 1188 1380 1382 1289 1043 496 219 357 686 774 540 524 409 545 587 611 433 357 298 316 127 0 112 278 440 401 238 210 10
0 0 0 0 0 0 0 0 0 0 0 0 0 0 0 0 0 0 657 855 1068 1248 1220 1071 806 426 237 344 723 892 931 778 744 789 624 214 142 131 21 1 0 136 260 209 165 148 131 49 3
0 0 5 1 7 6 0 0 0 0 0 0 0 0 0 0 0 0 163 853 1119 1124 1187 990 708 331 205 320 502 594 956 755 470 201 0 1 52 49 0 25 0 138 143 117 131 191 214 141 78
0 0 0 18 17 8 0 0 0 0 0 0 0 0 0 0 0 0 0 220 714 1023 1018 903 547 351 247 289 320 477 719 691 457 26 0 0 0 11 0 0 45 43 2 0 0 0 0 0 0
0 2 0 8 13 4 0 0 0 0 0 0 0 0 0 0 0 0 0 57 467 746 842 682 478 440 303 320 239 327 427 296 106 0 0 0 0 0 6 0 0 0 0 0 0 0 0 0 0
0 0 0 0 0 0 0 0 0 0 0 0 0 0 0 0 0 0 0 0 201 479 635 549 446 542 396 451 356 325 137 135 14 0 0 0 0 0 0 0 0 0 0 0 0 0 0 0 0
2 2 0 18 14 0 0 0 0 0 0 0 0 0 0 0 0 0 0 0 72 365 380 467 621 792 643 242 303 619 243 114 45 13 7 0 0 0 0 0 0 0 0 0 0 0 0 0 0
4 0 0 0 2 4 0 0 0 0 0 0 0 0 0 0 0 0 0 79 324 514 572 691 632 361 103 77 97 15 3 0 0 0 0 0 0 0 0 0 0 0 0 0 0 0 0 0 0
0 2 1 0 5 0 0 0 0 0 0 0 0 0 0 0 0 0 530 975 923 899 639 307 123 17 15 1 1 0 0 0 0 0 0 0 0 0 0 0 0 0 0 0 0 0 0 0 0
0 0 0 0 0 4 0 0 0 0 0 0 0 0 0 0 0 109 676 831 475 192 17 16 3 3 2 0 0 0 0 0 0 0 0 0 0 0 0 0 0 0 0 0 0 0 0 0 0